Location: Paderno d�Adda
(45.6667°N, 9.4333°E)
Time: 13:26:34
(UTC+00:00)

Cosmos 1048 Rocket - Pass Details

Date: 19 September 2020
Orbit: 742 x 792 km, 74.0° (Epoch: 29 October)

Event Time Altitude Azimuth Distance (km) Brightness Sun altitude
Rises 18:47:22 0° 341° (NNW) 3,258 7.8 -15.0°
Reaches altitude 10° 18:49:48 10° 346° (NNW) 2,335 6.9 -15.4°
Maximum altitude 18:55:02 57° 65° (ENE) 920 4.1 -16.2°
Enters shadow 18:58:05 25° 135° (SE) 1,562 5.1 -16.8°
